ITASAT

Last updated on Mon Nov 03 2025 00:03:21 GMT+0000 (Coordinated Universal Time)

1 43786U 18099AE 25306.02863755 .00008809 00000+0 47167-3 0 9999 2 43786 97.4398 357.2023 0015044 66.4264 293.8547 15.15159790378463
UTC large
Height (km)
Speed (km/s)
/
Latitude / Longitude
Inclination (degrees)
Orbital Period (minutes)
Azimuth
Elevation
Range (km)
Doppler Factor

Next 0 passes for location: London (51.5072 / 0.1276)

Sorry there are no passes over London.